User: anonymous   Login
Location: Deer Path Park
(40.5570°N, 74.8450°W)
Time: 14:21:05
(UTC-04:00)
Language:

Iridium 49 - Orbit

View from above orbital plane
View from above orbital plane
View from above satellite
View from above satellite

Ground track
Ground track

The orbit data is extracted from the following two-line orbital elements,

1 25108U 97082E   17266.42986948  .00000117  00000-0  34594-4 0  9992
2 25108  86.3989 214.3186 0002353  82.4737  36.9176 14.34217592 34456
Epoch (UTC): 23 September 2017 10:19:00
Eccentricity: 0.0002353
inclination: 86.3989°
perigee height: 776 km
apogee height: 779 km
right ascension of ascending node: 214.3186°
argument of perigee: 82.4737°
revolutions per day: 14.34217592
mean anomaly at epoch: 36.9176°
orbit number at epoch: 3445

The dashed part of the orbit path shows where the satellite is in the earth's shadow,  

DLR